GFSWCAN_500_spd_006.txt.gz
Wind_Speed
36 36 40 43 42 44 48 52 54 54 51 49 33 21 24 22 22 14 16 25 22 21 20 18 18 18 21 22 21 16 11 9 8 11 15 18 21 23 24 17 11 8 6 4 3 3 4 3 2 5 5 6 7 10
30 36 38 40 40 43 46 49 52 53 51 49 51 20 33 35 32 27 23 19 23 25 19 21 19 16 18 22 19 16 12 9 8 9 10 21 21 25 27 23 15 12 11 9 7 7 7 6 6 7 8 5 2 1
28 34 34 37 37 41 44 47 51 53 52 50 55 49 27 41 33 34 30 26 28 22 17 24 20 20 16 17 17 14 11 12 11 9 10 17 20 25 29 27 22 18 16 15 11 7 9 9 9 11 12 8 3 2
27 32 33 35 35 41 44 45 50 53 53 52 58 59 23 41 45 32 32 31 29 23 22 16 21 21 14 8 18 15 13 14 14 10 6 13 17 23 25 26 26 23 20 18 17 13 12 10 10 11 10 9 7 6
25 31 34 38 36 39 43 46 50 54 55 55 63 62 30 29 51 45 38 34 31 26 29 21 20 19 15 14 17 16 15 14 12 9 9 10 16 19 24 25 22 25 24 21 19 15 12 13 10 9 7 5 4 4
30 32 34 38 37 38 43 45 49 54 56 57 67 58 27 23 48 48 44 39 32 28 27 28 20 16 15 15 18 15 13 10 11 11 12 13 17 19 18 16 21 23 26 21 16 13 11 14 11 9 9 6 2 2
28 33 34 35 36 38 42 45 48 54 57 60 69 57 22 22 49 51 45 40 32 30 28 26 20 15 19 15 15 13 12 11 13 13 10 12 16 16 15 18 21 22 17 17 15 11 11 15 14 8 6 9 5 4
28 32 30 32 34 38 41 44 46 53 56 62 69 57 20 23 51 52 47 41 34 39 31 27 19 11 14 18 16 14 12 11 14 15 10 11 18 12 12 19 16 20 18 16 17 14 12 15 16 13 12 11 10 8
28 31 27 29 31 37 40 42 45 52 54 62 66 50 13 26 53 54 47 42 37 39 35 31 21 14 13 16 16 15 15 13 13 14 11 8 14 14 22 19 17 16 15 17 20 20 17 14 14 13 14 14 15 16
26 25 26 28 29 34 36 39 43 49 51 61 61 39 4 30 51 49 45 42 38 35 31 28 24 19 15 15 17 17 15 13 11 12 11 10 13 20 18 16 15 14 15 14 15 19 21 20 19 17 14 13 9 13
25 27 27 26 27 32 33 35 39 44 47 56 52 29 8 37 48 42 45 43 37 35 32 26 23 21 19 17 17 17 15 12 10 9 10 9 11 16 14 13 11 9 9 9 11 14 19 19 19 18 14 14 9 9
26 24 25 24 25 28 28 30 34 38 41 47 41 16 29 42 41 39 38 38 34 33 29 23 20 19 18 17 18 18 18 15 12 10 10 10 8 15 16 15 14 11 10 11 8 9 13 16 13 15 17 14 10 11
32 30 25 23 24 23 23 26 28 31 34 40 27 7 35 41 36 32 32 37 37 32 26 20 19 17 16 18 18 20 21 19 16 13 11 12 12 10 15 15 16 12 11 11 10 8 10 16 19 16 14 11 9 9
33 32 24 24 23 20 18 21 23 24 27 33 21 10 31 38 36 25 26 31 32 29 27 21 18 16 16 17 18 18 20 20 18 13 15 13 12 13 13 15 18 15 13 12 12 12 13 16 16 13 10 9 8 9
32 31 28 26 22 19 15 17 18 19 20 22 25 4 24 37 38 36 28 27 28 30 29 28 23 18 18 18 16 17 20 20 20 18 15 15 15 14 14 16 19 20 18 19 18 17 15 14 14 14 13 13 14 15
32 29 27 25 22 19 15 16 14 14 15 14 19 16 5 23 37 36 37 32 29 28 28 32 31 25 23 23 22 22 22 17 19 19 18 17 16 14 13 15 15 20 20 21 23 22 22 21 21 21 20 20 21 20
31 30 28 26 23 19 17 15 14 10 13 11 10 13 13 11 29 38 35 35 34 32 32 34 32 30 28 26 21 15 13 21 25 25 24 23 19 17 15 15 16 17 19 22 23 23 24 25 24 23 23 22 21 20
30 30 30 28 25 20 18 18 16 10 10 12 11 9 9 10 10 33 38 35 37 37 38 39 38 37 36 33 28 23 23 20 20 21 23 25 25 26 25 22 20 19 19 21 23 26 27 26 26 24 22 21 20 20
30 32 30 29 26 21 19 20 20 14 11 13 13 12 11 13 11 8 19 37 44 42 40 40 42 41 41 40 39 36 34 30 28 25 22 23 24 26 28 28 24 23 23 22 21 20 21 22 22 22 22 21 20 20
32 31 31 29 27 23 21 21 22 19 16 15 16 17 16 17 19 18 15 14 17 31 47 52 54 54 53 51 50 48 44 44 41 36 31 28 27 27 27 27 26 25 26 26 25 25 24 23 21 21 20 21 21 22
32 32 31 30 27 24 23 22 23 21 19 18 17 19 21 24 25 24 23 23 24 25 27 29 31 40 54 60 59 59 56 51 46 44 41 39 35 34 32 29 26 24 25 26 28 28 28 27 26 24 23 24 25 24
32 30 30 29 28 26 24 23 24 22 21 21 21 20 23 25 25 25 27 29 31 33 34 36 38 38 39 44 51 60 67 64 62 56 52 49 47 42 38 34 29 29 28 27 28 28 31 29 27 26 25 24 23 24
31 30 30 30 29 27 23 24 23 23 23 23 23 23 26 27 26 28 31 33 37 37 38 41 44 46 47 47 50 56 60 66 66 64 58 53 55 52 46 42 35 31 28 28 30 31 32 30 28 26 26 25 26 26
31 31 30 30 28 25 25 24 25 25 24 26 25 25 26 28 30 33 35 37 39 41 43 46 49 51 51 51 51 57 63 62 63 59 57 51 49 48 53 50 46 38 32 31 30 30 31 32 30 28 28 26 26 24
31 30 32 29 26 25 26 26 25 26 27 27 28 29 29 31 33 36 37 40 43 46 49 49 47 45 43 45 49 53 56 57 58 58 56 49 47 52 46 46 46 42 38 34 34 32 31 31 30 29 27 26 25 23
31 31 29 26 26 26 26 24 23 28 29 28 27 29 32 34 36 38 40 43 47 49 48 45 42 39 38 39 41 46 48 48 50 63 60 64 57 55 51 44 45 39 35 35 32 31 31 31 30 29 28 25 24 21
29 27 25 26 28 27 25 22 26 28 26 26 29 33 36 37 36 39 43 47 48 46 45 43 40 38 37 37 38 36 39 41 45 62 64 63 63 59 54 44 40 39 35 33 32 29 28 28 30 30 29 25 22 21
24 24 24 28 28 26 22 23 26 27 26 28 31 34 35 36 39 42 46 48 47 45 42 39 37 33 33 31 32 33 34 38 44 52 68 62 57 54 56 50 44 41 37 33 29 28 28 28 29 31 30 27 25 26
22 23 28 28 25 23 23 26 25 25 27 29 32 33 34 37 41 44 47 47 45 43 38 34 34 33 34 34 31 30 30 35 40 46 62 61 41 51 56 53 46 44 45 37 32 31 30 32 33 31 29 28 27 28
25 27 27 25 22 23 23 24 22 25 28 31 32 32 35 39 42 45 46 45 43 38 35 33 35 35 31 27 26 26 26 30 36 40 52 63 44 41 52 54 50 48 45 38 33 32 33 30 31 32 31 31 33 35
28 28 26 24 22 24 23 23 25 27 30 32 32 33 36 38 41 44 45 43 39 35 33 34 34 28 22 20 19 19 21 24 32 37 42 58 45 40 42 50 57 53 47 38 38 34 30 26 22 32 40 42 44 42
28 25 24 24 23 24 24 26 26 29 30 30 32 34 36 38 40 41 42 39 34 31 32 30 24 19 12 8 8 10 15 22 32 36 40 53 46 37 38 40 45 52 46 44 39 35 34 30 28 33 37 37 37 36
24 24 22 20 22 25 26 26 27 27 28 30 33 34 35 37 38 39 37 33 28 26 27 20 15 11 16 20 16 15 17 22 33 38 34 44 48 33 36 39 40 41 44 41 37 35 32 32 32 30 30 29 28 28

GFSWCAN_500_spd_012.txt.gz
Wind_Speed
39 37 28 26 26 26 27 25 28 29 28 30 31 31 32 32 25 23 22 24 25 21 22 22 21 27 24 21 18 17 15 15 16 17 18 19 17 16 13 15 18 16 14 13 10 9 10 13 13 13 15 18 18 17
32 35 31 31 29 27 27 26 29 32 29 30 33 34 34 35 35 30 23 28 35 26 26 21 22 23 22 22 21 20 17 17 17 17 17 17 16 16 16 15 18 18 17 14 13 12 13 13 13 12 14 16 16 14
25 31 29 24 27 25 28 29 30 32 32 34 36 38 39 40 41 40 38 25 41 36 32 24 19 19 18 23 25 24 18 19 17 15 13 13 15 16 18 18 19 22 21 18 16 16 16 14 12 12 14 15 15 12
27 31 26 26 28 27 30 29 32 33 34 38 39 40 43 48 49 49 47 28 48 42 38 30 25 20 21 24 25 29 16 17 17 14 12 12 16 19 20 20 19 23 23 23 21 18 17 16 14 14 14 14 14 11
25 27 24 26 26 27 30 29 31 34 37 40 41 45 49 54 57 58 45 29 54 48 40 38 35 24 23 24 24 26 24 19 16 14 12 12 15 18 19 19 18 22 26 23 23 21 20 19 16 14 13 12 10 6
21 22 25 26 27 29 28 28 31 36 41 41 44 49 54 60 64 59 31 31 54 48 42 39 34 30 26 25 24 25 23 21 18 15 13 12 16 18 15 15 20 24 28 26 19 18 19 18 15 13 12 9 8 7
24 25 24 24 28 27 28 29 30 34 40 41 46 52 58 63 61 38 16 30 55 47 40 35 36 31 22 29 24 16 15 19 21 16 11 11 13 16 12 18 24 25 24 21 16 17 15 15 16 15 13 11 9 10
19 21 22 25 27 28 31 30 28 32 37 40 47 52 58 58 39 6 17 43 50 41 38 34 30 26 22 25 24 20 18 18 17 13 8 8 12 11 13 18 17 17 13 9 10 13 16 16 15 16 15 14 9 9
23 22 20 23 27 29 29 29 27 32 33 38 43 49 54 39 10 9 33 49 42 36 38 31 28 24 22 19 17 19 14 19 16 10 8 7 8 9 9 11 9 9 7 8 11 13 14 18 16 16 17 16 13 12
22 19 29 31 28 28 28 26 26 30 29 33 39 44 44 25 2 26 41 38 33 34 31 25 29 26 21 17 14 16 16 15 12 11 7 8 9 5 4 10 12 12 11 10 12 15 17 18 19 16 17 17 15 15
26 29 32 30 27 27 26 24 25 25 26 28 34 38 34 12 22 32 35 32 32 31 28 23 23 25 21 14 8 10 11 12 12 11 8 9 10 6 6 11 14 14 14 15 17 17 18 20 19 19 19 17 16 16
35 32 33 31 29 28 27 25 23 21 20 21 26 30 22 7 26 31 32 29 28 27 25 22 21 24 20 12 9 7 8 9 11 12 11 13 10 9 4 10 15 16 14 14 14 14 16 18 20 19 21 20 18 14
36 35 34 32 29 29 29 25 25 19 18 15 19 21 10 9 25 26 25 24 22 21 20 24 23 22 19 16 13 12 9 9 10 11 16 14 13 12 9 4 12 15 13 12 13 13 11 10 14 20 17 18 16 17
36 33 32 32 27 27 28 25 23 18 15 10 13 13 4 10 23 22 23 21 21 23 20 22 25 24 21 19 16 14 13 12 10 10 11 15 15 15 14 10 7 12 17 15 14 13 11 7 8 14 17 13 14 21
33 31 29 31 30 27 25 23 21 20 14 8 10 7 1 9 21 23 22 25 23 23 23 21 23 23 23 23 21 17 14 11 9 9 9 11 14 15 14 15 12 9 9 15 19 12 11 9 11 17 22 24 24 22
25 26 27 28 29 27 26 23 23 23 16 11 9 8 4 7 17 22 25 23 25 26 24 24 24 25 23 24 22 20 17 14 15 13 12 12 12 14 15 15 16 15 12 11 14 16 16 16 14 15 18 20 20 19
27 19 23 25 25 25 26 23 25 24 19 14 12 12 9 6 9 20 23 27 28 28 27 27 27 29 30 29 27 24 20 18 20 18 16 14 14 15 16 16 18 18 16 15 13 17 19 21 22 21 20 21 22 22
27 26 24 27 24 24 25 25 25 26 23 19 16 14 13 11 9 9 18 28 30 31 31 27 27 32 33 33 32 32 30 30 29 28 25 22 19 17 18 21 21 21 20 20 18 16 15 20 22 26 26 25 26 27
31 29 26 28 27 25 26 26 27 27 27 24 21 19 16 15 13 12 12 13 21 32 37 39 42 39 37 35 35 35 35 34 34 34 34 31 29 27 23 21 23 24 25 26 26 24 21 19 18 22 26 27 28 28
33 31 26 27 29 27 27 26 26 28 27 28 24 22 20 18 16 16 15 14 15 16 18 23 32 40 43 45 46 45 43 43 41 38 39 41 40 37 36 33 29 26 26 25 26 29 27 25 25 23 22 22 25 25
33 28 25 25 27 25 26 26 27 29 28 29 27 25 23 22 20 19 19 18 19 19 21 22 25 27 25 23 24 32 44 47 47 48 46 45 46 46 46 45 43 38 34 30 27 25 27 29 29 27 26 24 22 21
28 26 26 25 24 25 27 27 28 28 29 27 28 27 25 24 23 22 22 21 20 23 25 25 24 25 30 31 31 31 32 33 34 33 34 40 44 47 51 53 52 50 47 43 40 34 29 28 28 29 30 28 27 25
29 26 26 24 25 27 26 28 28 27 28 26 29 29 26 25 25 25 24 22 24 26 25 26 28 29 30 32 35 36 37 37 38 40 41 43 44 44 43 43 47 55 59 57 51 47 42 35 32 26 29 30 28 27
27 27 27 28 28 26 26 27 27 26 27 27 28 28 27 27 26 26 25 25 28 28 29 29 29 30 31 34 36 38 38 38 38 38 40 41 43 45 47 48 49 48 49 57 64 60 54 46 40 33 27 28 30 29
32 31 32 30 28 27 26 25 24 25 26 28 27 27 26 27 27 26 25 27 29 30 30 32 33 34 35 36 37 39 41 42 43 44 46 48 48 48 47 47 50 54 55 54 56 66 65 57 51 42 34 29 27 31
33 31 32 30 28 26 25 23 24 24 26 26 25 25 27 27 27 27 27 28 27 29 32 33 34 35 38 39 40 42 43 43 44 44 47 48 50 51 52 53 54 55 56 58 60 63 67 65 57 53 46 37 32 27
33 29 27 26 27 27 24 23 23 24 24 24 24 25 27 27 26 28 30 29 30 31 33 36 37 39 40 41 42 43 44 46 47 49 51 52 53 54 54 54 54 55 56 56 57 61 62 61 53 50 48 43 40 34
28 25 26 28 27 25 24 24 24 25 25 24 24 26 26 26 28 30 30 31 31 33 36 38 39 40 41 42 44 46 48 50 53 53 52 50 50 51 50 48 48 50 51 52 54 55 60 54 48 45 45 43 38 35
23 24 28 28 27 26 25 25 25 25 25 24 23 24 25 26 29 30 31 31 33 35 38 40 41 41 43 45 49 52 54 55 53 50 49 48 47 47 45 42 40 40 44 45 49 53 58 57 53 45 42 39 37 35
26 27 26 25 25 26 26 26 26 25 23 22 22 23 24 26 28 30 31 32 35 37 38 39 41 42 45 48 52 55 56 55 48 45 44 44 42 40 39 37 38 37 38 43 49 53 69 56 53 44 44 41 39 36
26 25 25 25 25 26 25 25 23 22 21 21 22 23 24 25 28 30 32 34 36 37 39 41 43 45 48 52 53 52 48 48 44 40 39 37 33 31 29 27 29 30 35 40 46 51 65 60 51 45 43 42 38 37
24 25 24 24 25 25 23 21 20 19 20 22 23 24 26 27 28 30 33 35 37 38 40 42 45 48 51 52 50 47 44 40 38 35 34 33 28 26 26 26 25 27 29 33 38 44 55 58 51 43 39 36 34 29
27 25 26 26 25 22 21 20 19 20 21 23 25 26 26 27 29 30 34 36 37 39 41 43 46 48 49 48 43 39 37 35 32 32 25 25 21 18 21 23 26 32 36 42 40 36 44 51 50 48 41 31 29 28

GFSWCAN_500_spd_015.txt.gz
Wind_Speed
34 37 36 34 32 33 28 24 22 22 25 27 24 25 26 25 24 24 21 17 19 28 28 31 32 33 27 24 20 18 18 16 14 13 13 14 14 12 11 11 12 14 12 12 10 10 11 9 8 10 12 14 15 15
36 37 32 29 30 27 19 20 22 24 26 28 28 27 29 29 29 29 30 29 26 19 37 33 29 28 28 30 26 22 20 18 17 16 17 16 16 14 12 15 13 14 15 14 14 13 10 8 8 10 10 12 14 14
33 30 29 26 25 24 19 21 25 27 28 30 31 31 35 35 36 35 37 40 39 36 35 48 37 33 28 26 24 22 20 19 18 18 17 17 17 15 15 16 15 14 16 16 16 16 12 11 11 10 10 11 12 12
31 28 29 26 28 24 22 24 26 29 29 32 35 35 38 41 43 44 46 50 52 49 37 49 44 34 27 23 24 24 23 18 19 17 16 15 16 16 16 16 17 18 18 21 21 21 17 16 12 11 10 12 10 9
32 29 28 26 26 24 25 27 28 27 28 33 36 37 41 45 48 52 57 63 56 39 40 53 46 37 29 25 21 22 26 23 19 15 14 13 14 15 15 15 18 22 21 22 22 21 20 20 18 14 10 11 9 6
27 26 27 26 23 24 23 26 29 31 29 33 35 38 44 49 54 60 66 51 29 21 30 47 45 39 31 24 22 23 23 23 20 15 14 13 16 16 12 15 22 21 20 22 20 19 20 19 16 14 13 12 9 7
17 19 22 21 21 22 25 28 31 31 31 33 35 39 43 51 58 64 49 24 9 23 35 32 42 37 29 26 22 24 18 23 23 18 16 16 17 17 15 18 20 16 15 15 19 21 17 18 16 16 16 15 12 11
14 17 18 16 9 15 25 32 32 31 31 32 36 37 43 51 58 46 21 15 37 37 29 28 42 34 32 28 25 22 18 20 19 19 19 19 17 14 13 17 17 16 15 15 15 16 17 17 18 18 18 17 14 12
15 10 10 17 18 20 25 30 32 28 28 30 32 35 41 48 46 19 15 45 34 32 32 30 33 33 30 24 17 21 22 17 17 20 20 18 15 11 11 12 11 12 13 14 13 14 15 17 21 21 17 16 14 14
22 21 21 17 20 24 26 31 32 26 25 27 29 33 38 44 24 23 40 32 26 29 27 25 22 24 22 19 16 15 15 17 19 18 16 14 12 9 10 12 11 12 13 13 13 13 16 18 17 18 18 15 17 15
27 25 23 25 24 28 28 28 27 23 24 23 25 28 31 29 15 36 22 25 21 22 22 19 20 21 18 17 11 9 11 13 14 15 15 14 13 9 7 12 14 13 12 11 12 13 15 18 20 19 18 17 20 24
34 29 27 26 28 31 29 27 27 23 23 21 20 21 20 5 18 27 17 16 17 19 19 16 17 21 17 14 9 4 2 2 4 10 15 15 13 12 10 6 16 17 16 15 14 14 13 15 18 18 19 20 20 15
32 31 30 31 31 32 31 28 27 26 22 20 15 13 11 7 18 25 18 16 15 14 16 13 12 15 18 16 10 6 4 5 5 8 12 15 14 12 13 11 5 14 18 18 15 15 16 16 19 20 20 19 20 19
36 34 35 34 35 31 27 27 26 24 22 17 13 8 5 14 20 22 23 20 19 18 18 16 16 16 18 17 14 11 9 8 8 8 7 10 13 13 13 14 14 6 10 15 14 15 14 15 15 14 18 17 16 14
33 29 27 31 31 26 26 26 27 24 20 18 14 9 7 10 18 27 25 22 20 21 22 19 19 21 21 20 17 14 12 11 10 8 6 6 8 10 11 11 14 14 6 7 17 17 18 13 14 10 13 15 20 21
31 27 25 25 25 24 27 26 26 26 22 19 17 13 12 13 17 22 28 27 25 22 21 22 21 20 19 20 19 18 17 16 17 15 11 9 9 9 10 11 12 14 15 10 7 14 18 14 10 16 18 20 23 25
30 27 28 27 23 21 23 26 27 26 25 21 22 19 15 12 12 20 25 28 27 24 23 25 25 23 24 23 22 20 17 20 19 18 17 15 13 12 13 14 14 15 15 16 14 11 13 18 16 15 16 19 22 24
22 24 27 28 26 23 22 22 25 24 25 22 24 23 19 16 14 13 16 25 30 30 30 28 29 30 28 25 23 24 25 27 27 27 26 24 23 22 20 19 17 17 18 19 19 19 17 14 15 19 22 22 21 22
24 24 30 30 25 23 23 23 22 20 22 23 22 25 24 20 18 16 15 15 15 22 31 32 35 31 29 28 27 28 29 30 31 32 33 33 32 30 30 28 26 24 21 21 22 23 23 23 22 20 18 20 24 27
28 25 26 29 25 23 25 22 21 22 22 23 23 23 27 25 21 20 17 16 15 15 15 15 17 22 29 34 37 39 40 39 38 38 39 39 38 36 36 35 35 34 31 28 28 26 26 25 26 25 24 24 23 21
29 27 25 23 24 25 26 22 21 21 22 24 26 26 26 30 25 22 20 19 16 15 17 17 17 17 17 22 24 23 26 31 37 39 42 44 46 45 44 44 42 41 40 38 37 36 34 30 27 26 26 27 27 26
32 28 24 24 24 25 26 22 21 22 24 25 27 28 27 28 29 26 24 20 16 20 18 18 18 19 19 19 20 22 27 30 32 32 31 29 31 34 38 43 47 48 47 46 44 43 42 41 38 34 29 26 26 28
32 30 28 26 24 25 23 23 22 20 21 23 27 28 28 27 28 28 25 20 20 25 21 19 21 21 21 22 24 24 25 27 29 31 33 34 36 37 38 40 41 42 43 43 44 45 49 48 45 44 41 37 31 27
31 31 29 30 26 22 21 21 21 20 22 24 26 27 28 28 26 26 24 21 24 24 22 22 23 23 24 24 25 28 30 32 33 35 36 36 36 37 37 38 39 41 45 47 49 48 45 44 48 53 51 46 42 35
34 37 34 30 24 21 21 22 21 20 22 24 26 28 27 26 26 25 23 24 25 23 23 24 25 25 26 28 29 31 32 34 35 38 40 39 40 40 41 42 44 46 47 46 46 48 49 49 49 47 51 55 50 44
39 40 36 28 23 22 23 24 22 21 21 24 26 24 24 25 24 22 23 25 24 24 25 26 26 27 29 30 32 36 38 39 40 41 43 42 42 42 43 43 44 48 50 49 49 50 50 51 55 55 52 51 54 49
42 39 30 23 21 22 24 23 21 21 22 24 23 23 24 23 22 23 24 24 24 25 27 26 27 29 31 34 36 38 40 41 40 41 42 45 47 47 46 46 47 49 51 51 50 51 52 53 53 55 59 59 57 52
41 32 27 25 24 24 24 24 23 22 23 23 22 22 23 22 22 25 24 23 23 25 26 27 29 30 33 36 38 40 41 42 42 43 46 49 51 52 51 49 49 50 49 50 51 52 52 53 54 55 56 59 58 56
34 29 29 26 25 24 23 23 22 23 22 24 23 22 21 22 24 23 21 21 24 26 28 29 31 33 35 38 42 43 44 45 46 48 49 52 54 56 54 50 48 48 47 47 49 49 49 49 51 52 54 54 54 54
33 29 27 25 22 21 22 22 23 25 25 23 22 21 20 21 23 22 22 24 25 26 28 30 32 35 39 42 44 46 49 50 51 52 54 54 51 50 49 46 43 44 43 42 43 43 43 42 42 45 49 50 56 54
30 26 26 25 23 22 23 24 25 24 22 21 20 18 20 20 20 22 23 24 25 27 30 33 36 39 42 43 44 47 50 53 56 57 55 49 46 45 40 40 38 37 32 30 32 35 36 34 34 42 43 53 49 51
26 25 24 23 23 24 25 25 23 21 20 19 18 19 19 19 20 22 25 25 27 29 32 36 39 40 41 43 46 48 51 53 54 52 47 41 37 36 38 36 32 25 22 22 25 30 31 32 35 38 47 55 57 51
24 23 23 24 25 25 24 22 21 18 17 18 19 19 19 19 21 22 24 26 28 31 34 36 38 40 42 44 47 49 51 51 47 42 37 36 36 34 26 23 18 18 19 19 22 25 28 31 38 37 42 58 51 34

GFSWCAN_500_spd_018.txt.gz
Wind_Speed
39 32 30 31 31 33 32 26 29 23 21 19 20 22 22 23 22 21 20 20 21 20 23 21 23 30 27 25 22 23 22 21 18 16 14 17 17 14 14 13 13 13 17 14 13 15 13 10 9 9 7 7 10 10
33 32 32 34 33 34 28 25 27 22 19 20 23 24 27 26 28 27 28 27 27 27 28 31 29 35 35 37 34 27 24 22 22 21 20 20 20 18 18 15 13 13 14 16 15 16 15 11 9 9 6 7 9 9
36 35 32 34 32 30 25 22 24 24 21 23 25 29 31 32 33 33 34 35 34 35 37 39 35 38 44 38 36 31 30 25 24 25 23 22 21 19 20 19 16 16 16 15 17 18 16 13 12 10 8 8 8 7
35 32 32 32 30 25 23 21 24 25 24 24 28 31 34 34 35 38 42 45 44 45 45 50 49 47 46 45 35 28 27 27 26 25 23 20 18 18 17 17 18 22 18 17 18 22 18 17 14 13 12 10 9 6
32 30 28 27 26 26 22 21 25 23 24 28 31 33 35 36 38 44 49 53 57 59 58 51 47 49 49 46 35 28 27 26 23 20 20 20 18 16 16 19 25 22 21 20 18 24 21 21 20 19 18 16 12 9
24 25 25 24 23 23 21 20 22 19 25 28 30 33 35 35 41 48 56 62 59 44 31 27 31 42 41 39 31 28 28 29 23 25 22 19 18 18 18 20 24 22 21 20 19 22 20 23 23 20 19 17 15 13
19 20 18 17 17 17 16 16 18 22 27 30 30 32 32 35 43 51 56 44 22 1 20 24 17 37 41 34 30 26 27 26 29 24 18 18 17 17 18 21 22 21 18 18 20 21 22 25 24 22 19 18 17 17
15 11 9 8 9 10 12 12 17 23 26 26 29 28 29 36 44 47 22 13 30 45 31 27 28 32 36 33 28 25 24 22 22 22 21 21 17 17 18 21 21 21 19 20 21 22 24 23 24 23 21 19 19 18
19 17 15 14 11 11 13 14 18 21 24 26 27 25 28 36 39 13 29 27 22 22 27 36 27 30 34 29 24 23 26 20 16 19 22 22 20 19 20 21 21 19 20 21 21 23 23 21 21 22 22 20 17 16
27 25 23 18 16 15 11 15 19 21 20 21 23 22 26 30 21 25 20 20 22 27 21 18 29 29 28 23 21 21 15 18 21 17 21 22 22 19 21 20 21 18 20 20 19 19 18 19 19 19 20 18 17 17
32 30 29 24 22 19 18 19 20 21 20 20 20 18 20 20 15 20 16 10 13 15 15 16 21 20 20 18 15 15 18 19 20 20 20 22 20 18 19 15 17 19 19 18 18 17 16 15 15 18 18 15 19 18
35 31 32 29 31 32 26 19 21 24 22 20 19 16 12 2 16 16 11 7 11 14 13 15 16 16 17 17 16 10 11 13 15 17 20 19 16 15 16 14 9 16 19 19 20 19 17 16 18 19 21 19 21 19
36 36 35 29 26 27 29 25 26 25 23 21 20 16 9 7 20 20 13 10 10 12 11 11 15 15 14 15 12 9 6 5 8 8 11 12 13 15 15 14 12 7 14 21 19 17 15 16 16 16 17 18 21 18
29 28 29 29 29 29 30 30 30 28 25 21 21 18 11 11 15 30 21 15 15 16 15 13 11 12 15 15 17 9 5 7 7 7 8 10 11 12 12 13 12 9 5 10 16 17 16 18 19 19 15 18 21 21
27 25 25 27 30 32 31 30 29 26 22 21 22 21 15 14 23 31 30 24 21 20 20 18 16 14 14 17 18 14 11 10 9 8 6 5 6 8 10 11 12 13 9 4 9 14 17 19 15 17 18 16 18 19
22 22 24 26 27 27 24 22 25 25 25 23 23 21 21 18 22 30 33 31 28 25 22 21 21 19 18 20 20 19 16 13 14 13 11 10 8 7 9 10 11 13 13 12 8 5 13 18 15 12 12 17 21 21
22 20 21 22 26 25 24 22 22 27 28 26 24 24 26 22 19 23 28 35 30 28 27 25 24 23 23 20 17 16 15 16 18 18 17 15 12 11 9 9 10 11 13 14 15 15 12 10 12 15 17 18 18 20
23 23 20 18 20 24 24 23 24 24 24 24 24 26 26 26 22 20 24 30 33 31 30 28 27 26 25 24 21 22 22 22 22 22 23 23 22 22 21 19 18 17 15 15 17 17 18 17 16 14 12 18 20 20
24 23 22 20 20 21 25 23 25 22 21 21 21 27 26 29 27 24 21 22 25 29 31 31 33 30 28 28 28 28 28 28 28 29 30 31 31 30 29 28 27 26 25 24 22 21 20 20 20 20 20 19 18 18
28 25 24 22 23 21 24 27 26 24 20 19 21 25 27 26 29 27 26 24 23 20 18 15 16 23 30 32 32 32 33 33 33 33 34 34 34 35 35 35 34 32 32 31 30 28 27 27 25 23 21 22 23 23
29 28 26 25 23 22 22 22 23 23 21 20 21 24 26 27 27 29 30 29 26 21 20 20 21 18 16 15 16 17 19 22 27 32 35 37 38 40 42 44 44 44 42 40 40 38 36 35 34 32 29 28 26 25
28 25 27 29 27 25 22 18 19 20 21 20 20 22 25 26 27 27 27 30 25 24 26 25 22 21 22 21 20 19 20 20 21 23 25 28 30 31 32 32 32 33 36 41 44 45 44 43 40 38 37 35 34 32
29 30 31 31 31 27 20 17 17 19 21 21 22 22 24 25 26 29 29 24 27 29 29 25 23 21 22 22 22 21 21 21 21 22 23 26 28 30 31 33 34 36 39 40 39 39 40 43 46 47 45 43 42 40
29 31 32 32 34 26 19 19 16 19 19 20 21 22 23 23 26 28 27 24 28 30 30 25 24 24 24 23 24 23 23 22 23 25 27 28 30 31 32 34 35 37 37 38 40 42 43 44 45 44 43 44 43 44
32 31 36 36 34 26 20 18 16 20 20 19 21 23 22 23 26 26 24 25 26 26 26 26 27 26 25 26 26 26 25 26 27 28 31 31 33 36 38 40 41 41 41 41 40 42 44 45 44 44 47 48 47 46
38 39 37 33 31 25 21 19 18 20 20 21 24 24 23 24 25 22 21 23 25 25 24 25 27 26 26 27 28 28 28 29 30 33 35 36 37 39 40 42 43 45 45 44 45 46 48 48 48 48 49 49 48 50
42 42 40 32 30 25 23 22 21 20 20 22 24 24 22 23 21 19 20 22 23 23 24 26 26 26 27 29 29 30 31 32 33 34 37 39 43 45 45 45 46 48 48 49 49 48 49 50 51 52 52 52 52 52
46 43 39 33 32 30 28 22 20 20 20 23 23 22 22 21 20 21 21 21 23 23 24 25 25 27 29 30 30 32 33 33 35 37 40 44 48 50 50 50 50 50 51 51 51 50 49 50 51 52 54 54 55 55
50 44 42 38 33 33 27 22 20 20 21 23 23 22 20 21 22 21 20 21 22 23 24 25 27 29 29 30 32 33 34 36 39 42 46 49 50 52 53 52 52 53 52 54 55 53 52 50 50 51 52 54 55 57
52 46 41 36 32 31 28 23 20 21 23 24 24 22 20 21 21 21 21 21 22 22 23 24 25 26 29 31 33 35 39 42 45 48 48 48 49 52 54 57 57 57 56 55 54 53 52 51 51 51 51 51 52 53
52 44 36 33 34 31 27 23 20 21 24 25 23 21 21 20 20 20 21 21 20 20 22 24 26 28 30 32 35 40 46 48 49 49 49 49 52 56 58 58 57 53 49 46 44 43 45 45 45 45 45 47 47 47
38 38 36 35 32 29 26 21 20 21 22 22 21 20 20 19 19 20 21 20 20 22 24 25 26 29 33 37 41 43 44 46 48 50 52 55 57 56 52 46 42 42 42 41 37 38 37 34 33 34 37 38 38 38
32 35 36 33 30 25 22 21 21 20 20 20 19 18 17 19 20 19 21 22 22 21 23 25 28 32 36 39 41 43 44 46 48 52 54 54 48 42 39 41 41 31 26 25 23 21 21 24 26 30 30 29 30 35